CHEOPS (44874 NORAD) Tracking and Keplerian Element Data

This shows tracking and keplerian element data for the satellite.

Feedback or suggestion? Click here.




ElementValue
Catalog44874
NameCHEOPS
Epoch Orbit510
Epoch Day22.46951681
Epoch Year2020
RAAN208.7638
Inclination98.2283
Eccentricity0.0011086
Argument of Perigee167.1266
Mean Anonmoly193.0217
Mean Motion14.56777297
Decay Rate0
L11 44874U 19092B 20022.46951681 .00000000 00000-0 10251-4 0 9997
L22 44874 98.2283 208.7638 0011086 167.1266 193.0217 14.56777297 5104

Live tracking and technical data element details for CHEOPS (NORAD 44874). CHEOPS can be tracked NOW for your location showing map with azimuth and elevation plus other details from your city location.

Track the satellite on the map from your city or location and see movement details for azimuth, elevation, latitude, longitude, range, height, and movement on the map or in text.







IsCatalogInMostPopularTable: catalog: 44874, numindb: 5
Update: records affected: 1



GetName: 44874 CHEOPS

Hit Count: updated at: Fri, 24 Jan 2020 12:10:43 GMT